Other Public Products
Issued by NWS Grand Forks, ND

Home | Current Version | Previous Version | Graphics & Text | Print | Product List | Glossary On
Versions: 1 2 3 4 5 6 7 8 9 10 11 12 13 14 15 16 17 18 19 20 21 22 23 24 25 26 27 28 29 30 31 32 33 34 35 36 37 38 39 40 41 42 43 44 45 46 47 48 49 50
000
FPUS83 KFGF 230210
OPUFGF
PRAIRIE TO PINES WEATHER ROUNDUP
NATIONAL WEATHER SERVICE EASTERN NORTH DAKOTA/GRAND FORKS ND
800 PM CST SAT NOV 22 2014

 **SATELLITE DATA USED TO AUGMENT SKY COVER AT AUTOMATED STATIONS**
 *****  WEATHER ACROSS EASTERN NORTH DAKOTA  *****

CITY           SKY/WX    TMP DP  RH WIND       PRES   REMARKS
GRAND FORKS    CLOUDY    37  30  75 S12       29.37F
GRAND FORKS AF CLOUDY    35  31  86 S15       29.36F
GRAND CITY NWS   N/A     34 N/A N/A S9          N/A
BUXTON         NOT AVBL
DEVILS LAKE    CLOUDY    36  27  69 SE9       29.31F
FARGO          CLOUDY    35  31  85 S20G31    29.41F WCI  24
WAHPETON ARPT  CLOUDY    32  32 100 SE14G20   29.42F WCI  22
$$

 *****  WEATHER ACROSS CENTRAL AND WESTERN NORTH DAKOTA  *****

CITY           SKY/WX    TMP DP  RH WIND       PRES   REMARKS
JAMESTOWN      CLOUDY    34  28  79 S7        29.33F
BISMARCK       PTCLDY    34  32  92 SW5       29.34F
MINOT          CLOUDY    42  31  64 SW14      29.25R
MINOT AFB      CLOUDY    40  33  75 W12       29.24S
GARRISON         N/A     35  30  82 W8        29.29R
WILLISTON      PTCLDY    34  30  85 SW8       29.30R
DICKINSON      PTCLDY    38  33  82 SW12      29.31S
HETTINGER      MOCLDY    37  33  85 S6        29.38S
$$

 *****  OTHER OBSERVATIONS NORTHEAST NORTH DAKOTA  *****

CITY           SKY/WX    TMP DP  RH WIND       PRES   REMARKS
WALHALLA         N/A     32  32 100 SE8       29.37S WCI  25
LANGDON        FAIR      32  28  86 SE14      29.32F WCI  22
CAVALIER       FAIR      32  28  86 S7        29.37F
GRAFTON        FAIR      32  28  86 SE9       29.36F WCI  24
CANDO          CLOUDY    36  28  75 SE16G26   29.28F
FORT TOTTEN      N/A     36  30  78 SE8       29.95S
ROLLA          MOCLDY    36  30  80 S14       29.26F
RUGBY          FAIR      36  32  87 S9        29.28R
 ***** THE ABOVE OBSERVATIONS ARE NON NWS ARE NOT QUALITY
        CONTROLLED AND MAY MIS-REPORT RAIN FOR SNOW...
$$

 *****  OTHER OBSERVATIONS SOUTHEAST NORTH DAKOTA *****

CITY           SKY/WX    TMP DP  RH WIND       PRES   REMARKS
COOPERSTOWN    NOT AVBL
VALLEY CITY    CLOUDY    32  32 100 SE7       29.35F
OAKES            N/A     30  30 100 SE8       29.36F WCI  23
GWINNER        CLEAR     32  32 100 SE6       29.39F
SHEYENNE NWR     N/A     33  31  93 SE10      29.95S WCI  25
BUFFALO        NOT AVBL
WYNDMERE         N/A     34  34 100 SE10        N/A
 ***** THE ABOVE OBSERVATIONS ARE NON NWS ARE NOT QUALITY
       CONTROLLED AND MAY MIS-REPORT RAIN FOR SNOW...
$$

  *****  WEATHER ACROSS NORTHERN MINNESOTA  *****

CITY           SKY/WX    TMP DP  RH WIND       PRES   REMARKS
FLAG ISLAND    CLOUDY    34  30  86 SE7       29.47S
WARROAD        MOCLDY    34  30  86 E7        29.44F
ROSEAU         CLOUDY    36  30  80 E8        29.42F
HALLOCK        CLOUDY    36  30  80 E7        29.36F
THF RVR FALLS  CLOUDY    37  30  75 E9        29.40F
HALSTAD          N/A     34  30  86 S20         N/A  WCI  23
FOSSTON        MOCLDY    37  28  70 SE12G17   29.40F
BAUDETTE       MOCLDY    35  30  82 SE7       29.47F
WASKISH        CLOUDY    36  30  80 CALM      29.47F
CROOKSTON      CLOUDY    36  30  80 S10       29.41S
$$
  *****  WEATHER ACROSS CENTRAL AND WEST MINNESOTA  *****

CITY           SKY/WX    TMP DP  RH WIND       PRES   REMARKS
BEMIDJI        PTCLDY    34  29  80 SE13      29.45F
PARK RAPIDS    CLOUDY    31  30  96 SE17      29.46F WCI  19
WADENA         CLOUDY    30  30 100 SE12      29.48F FOG     WCI  21
DETROIT LAKES  CLOUDY    32  32 100 S16       29.44F WCI  21
MOORHEAD       CLOUDY    36  36 100 S23       29.42F FOG
FERGUS FALLS   CLOUDY    34  32  93 SE15      29.48R FOG     WCI  24
ELBOW LAKE       N/A     33  33 100 SE15      29.45S FOG     WCI  22
MORRIS MN      FOG       34  34 100 SE15      29.44S VSB 1/2 WCI  24
STAPLES        CLOUDY    30  30 100 SE8       29.50F FOG     WCI  23
WHEATON        CLOUDY    30  30 100 E9        29.44F FOG     WCI  22
$$
  *****  WEATHER ELSEWHERE ACROSS MINNESOTA  *****

CITY           SKY/WX    TMP DP  RH WIND       PRES   REMARKS
DULUTH         CLOUDY    33  31  92 SE9       29.58F FOG
INTRNTL FALLS  MOCLDY    34  30  85 SE8       29.53R
ELY            MOCLDY    30  28  93 S6        29.56S FOG     WCI  24
CLOQUET        CLOUDY    34  30  86 S6        29.58F FOG
BRAINERD       CLOUDY    31  31 100 S9        29.55R FOG     WCI  23
HIBBING        CLOUDY    33  29  85 SE8       29.56F
ALEXANDRIA     FOG       33  32  96 SE14      29.47F VSB 1/2 WCI  23
SAINT CLOUD    FOG       34  33  96 SE9       29.55S VSB 3/4
MINNEAPOLIS    CLOUDY    36  35  96 SE9       29.59F FOG
$$

  *****  WEATHER ACROSS SOUTH DAKOTA  *****

CITY           SKY/WX    TMP DP  RH WIND       PRES   REMARKS
SIOUX FALLS    CLOUDY    40  37  89 S14       29.46F
BROOKINGS      NOT AVBL
WATERTOWN      PTCLDY    34  31  88 S9        29.41R
HURON          MOCLDY    37  33  85 S8        29.41S
SISSETON         N/A     32  31  96 S10       29.40F WCI  24
ABERDEEN       CLOUDY    32  29  88 S6        29.39S
MITCHELL       MOCLDY    44  34  67 SW8       29.45R
PIERRE         CLOUDY    41  31  67 SW6       29.41S
MOBRIDGE       CLOUDY    37  31  78 CALM      29.35F
RAPID CITY     CLOUDY    44  30  57 E3        29.42R
$$

  *****  SOME WEATHER IN NEARBY STATES *****

CITY           SKY/WX    TMP DP  RH WIND       PRES   REMARKS
GLASGOW MT     PTCLDY    39  27  62 W23G32    29.29S
GREAT FALLS MT PTCLDY    36  18  48 W16       29.52R
CHEYENNE WY    MOCLDY    41  23  48 W8        29.58F
SCOTTSBLUFF NE CLOUDY    41  30  65 E3        29.54S
OMAHA NE       CLOUDY    54  53  97 S14       29.60S
DES MOINES IA  CLOUDY    57  52  83 S16       29.67S
DAVENPORT IA   MOCLDY    53  47  79 S18G26    29.78F
CHICAGO IL     CLOUDY    52  45  77 S16       29.85F
EAU CLAIRE WI  CLOUDY    36  35  96 SE5       29.66F FOG
LA CROSSE WI   CLOUDY    40  38  93 SE6       29.69F FOG
$$

  *****  SOME NATIONAL WEATHER *****

CITY           SKY/WX    TMP DP  RH WIND       PRES   REMARKS
LA GUARDIA NY  MOCLDY    44  19  36 SW14G22   30.22F
RALEIGH NC     PTCLDY    37  20  50 CALM      30.36S
ATLANTA GA     CLOUDY    55  28  35 E9        30.25F
NEW ORLEANS LA CLOUDY    63  60  90 E12       29.99F
OKLAHOMA CITY  CLOUDY    57  52  83 SE13      29.74S
ALBUQUERQUE NM MOCLDY    51  15  23 NW6       29.91S
SALT LAKE CITY CLOUDY    35  34  96 S6        29.85S
LOS ANGELES CA MOCLDY    64  53  67 SW7       30.01S
BOISE ID       CLOUDY    40  34  79 W8        29.90R
SEATTLE WA     MOCLDY    46  42  86 S6        30.02R
$$

*** WEATHER ACROSS MANITOBA...SASKATCHEWAN AND ONTARIO ***
                ***ONTARIO***

CITY           SKY/WX    TMP DP  RH WIND       PRES   REMARKS
GERALDTON      CLOUDY    27  23  86 NE7       29.67F WCI  19
THUNDER BAY    CLOUDY    36  32  87 E6        29.66S
SIOUX LOOKOUT  CLOUDY    27  23  86 SE5       29.58S WCI  21
TORONTO        LGT RAIN  41  39  93 SW10      29.93F
BIG TROUT LK   FLURRIES   0  -2  92 W3        29.73S
PICKLE LAKE    FLURRIES  16  10  79 E7        29.63F WCI   6
DRYDEN         CLOUDY    28  27  93 E7        29.55S WCI  21
KENORA         FLURRIES  32  28  86 SE13      29.48F WCI  22
$$
                *** MANITOBA***

CITY           SKY/WX    TMP DP  RH WIND       PRES   REMARKS
BRANDON        FOG       25  25 100 E16       29.31F VSB 5/8 WCI  12
DAUPHIN        NOT AVBL
ISLAND LAKE    MOCLDY     3   1  92 NE3       29.70R
PILOT MOUND      N/A     30  28  93 SE13G24     N/A  WCI  20
THE PAS        FLURRIES   7   3  85 NE10G18   29.59R WCI  -8
THOMPSON       CRYSTALS -11 -15  84 NE5       29.76R WCI -23
WINNIPEG       CLOUDY    28  25  86 NE9       29.42S WCI  20
LYNN LAKE      CLEAR    -15 -20  76 N5        29.73R WCI -27
CHURCHILL      CLEAR    -17 -22  76 W7        29.79R WCI -33
GILLAM         CLEAR    -17 -22  76 NW2       29.79S
$$
                ***SASKATCHEWAN***

CITY           SKY/WX    TMP DP  RH WIND       PRES   REMARKS
ESTEVAN        CLEAR     34  28  80 SW9       29.20S
KINDERSLEY     LGT SNOW  23  19  86 N17       29.29R DRFTSNOWWCI   9
LLOYDMINSTER   LGT SNOW  19  18  93 N9        29.41R DRFTSNOWWCI   9
PRINCE ALBERT  LGT SNOW  16  12  86 NE18G26   29.41R VSB 1   WCI  -1
REGINA         CLOUDY    36  32  87 S8        29.10F


USA.gov is the U.S. government's official web portal to all federal, state and local government web resources and services.